Skip Page Navigation
NASA JPL Caltech
NASA Logo - Jet Propulsion Laboratory + View the NASA Portal
+ Center for Near-Earth Object Studies
JPL Home Earth Solar System Stars & Galaxies Technology
JPL Solar System Dynamics
BODIES ORBITS EPHEMERIDES TOOLS PHYSICAL DATA DISCOVERY FAQ SITE MAP
JPL Small-Body Database Browser
Search: [ help ]  
437130 (2012 UU153)
Classification: Main-belt Asteroid          SPK-ID: 2437130
Ephemeris | Orbit Diagram | Orbital Elements | Mission Design | Physical Parameters | Discovery Circumstances ]

[ show orbit diagram ]
Orbital Elements at Epoch 2459000.5 (2020-May-31.0) TDB
Reference: JPL 11 (heliocentric ecliptic J2000)
 Element Value Uncertainty (1-sigma)   Units 
e .1614048176098955 6.7032e-08  
a 2.704273487102539 6.3183e-08 au
q 2.267790718149478 1.9696e-07 au
i 5.633552235133965 1.033e-05 deg
node 66.42192610232655 7.6785e-05 deg
peri 258.1815410845427 8.4044e-05 deg
M 324.2088738050179 3.8079e-05 deg
tp 2459161.990584191393
(2020-Nov-08.49058419)
0.00017376 TDB
period 1624.330287686002
4.45
5.6926e-05
1.559e-07
d
yr
n .2216298019738651 7.7672e-09 deg/d
Q 3.140756256055601 7.3381e-08 au
  Orbit Determination Parameters
   # obs. used (total)      84  
   data-arc span      4301 days (11.78 yr)  
   first obs. used      2006-04-07  
   last obs. used      2018-01-15  
   planetary ephem.      DE431  
   SB-pert. ephem.      SB431-N16  
   condition code      0  
   norm. resid. RMS      .67219  
   source      ORB  
   producer      Otto Matic  
   solution date      2019-Jul-14 14:54:54  

Additional Information
 Earth MOID = 1.26398 au 
 Jupiter MOID = 2.19917 au 
 T_jup = 3.340 
[ show covariance matrix ]

Ephemeris | Orbit Diagram | Orbital Elements | Mission Design | Physical Parameters | Discovery Circumstances ]

Physical Parameter Table
Parameter Symbol Value Units Sigma Reference Notes
absolute magnitude H 16.6   n/a MPO434607  

437130 (2012 UU153)          Discovered 2008-Dec-30 by Spacewatch at Kitt Peak
Reference: Last Updated: 2015-06-04

Alternate Designations
 2012 UU153 = 2008 YV72 
Ephemeris | Orbit Diagram | Orbital Elements | Mission Design | Physical Parameters | Discovery Circumstances ]
ABOUT SSD CREDITS/AWARDS PRIVACY/COPYRIGHT GLOSSARY LINKS
FirstGov 2020-Aug-09 15:49 UT
(server date/time)  
NASA Home Page
Site Manager:   Ryan S. Park
Webmaster  Alan B. Chamberlin